Location: Montclair
(37.8322°N, 122.2092°W)
Time: 15:49:49
(UTC+00:00)

Cosmos 1939 Rocket - Pass Details

Date: 08 September 2024
Orbit: 510 x 550 km, 97.5° (Epoch: 08 October)

Event Time Altitude Azimuth Distance (km) Brightness Sun altitude
Rises 12:53:15 0° 8° (N) 2,745 6.7 -10.9°
Reaches altitude 10° 12:55:24 10° 5° (N) 1,849 5.8 -10.5°
Maximum altitude 12:59:22 65° 284° (WNW) 618 2.8 -9.7°
Drops below altitude 10° 13:03:19 10° 203° (SSW) 1,839 5.1 -9.0°
Enters shadow 13:07:34 -7° 199° (SSW) 3,615 6.7 -8.2°
